This is the latest recevied weather packets stored in our database for station/object KD0ISH. If no packets are shown the sender has not sent any weather packets the latest 10 day(s).
| Time | Temp. | Humidity | Pressure | Rain* | Wind** | Luminosity | Snow |
|---|---|---|---|---|---|---|---|
| 1777847993 | 25.56° C | 41% | 1011.9 hPa | 0 mm | - | 214 W/m² | - |
| 1777847691 | 25.56° C | 42% | 1012 hPa | 0 mm | - | 173 W/m² | - |
| 1777847386 | 25.56° C | 41% | 1012 hPa | 0 mm | - | 161 W/m² | - |
| 1777847085 | 26.11° C | 40% | 1012.1 hPa | 0 mm | - | 166 W/m² | - |
| 1777846783 | 26.67° C | 40% | 1012 hPa | 0 mm | - | 235 W/m² | - |
| 1777846481 | 26.67° C | 40% | 1012.1 hPa | 0 mm | - | 298 W/m² | - |
| 1777846177 | 26.67° C | 39% | 1012 hPa | 0 mm | - | 322 W/m² | - |
| 1777845874 | 26.67° C | 40% | 1011.9 hPa | 0 mm | - | 354 W/m² | - |
| 1777845571 | 26.67° C | 42% | 1012.3 hPa | 0 mm | - | 394 W/m² | - |
| 1777845268 | 26.67° C | 38% | 1012.4 hPa | 0 mm | - | 401 W/m² | - |
| 1777844966 | 27.22° C | 40% | 1012.3 hPa | 0 mm | - | 403 W/m² | - |
| 1777844663 | 26.67° C | 38% | 1012.3 hPa | 0 mm | - | 445 W/m² | - |
| 1777844360 | 26.67° C | 38% | 1012.4 hPa | 0 mm | - | 445 W/m² | - |
| 1777844058 | 27.22° C | 39% | 1012.7 hPa | 0 mm | - | 445 W/m² | - |
| 1777843754 | 26.67° C | 43% | 1012.4 hPa | 0 mm | - | 431 W/m² | - |
| 1777843452 | 27.22° C | 40% | 1012.3 hPa | 0 mm | - | 456 W/m² | - |
| 1777843149 | 26.67° C | 42% | 1012.7 hPa | 0 mm | - | 483 W/m² | - |
| 1777842846 | 26.67° C | 39% | 1012.9 hPa | 0 mm | - | 507 W/m² | - |
| 1777842541 | 26.67° C | 40% | 1012.5 hPa | 0 mm | - | 513 W/m² | - |
| 1777842239 | 27.22° C | 41% | 1013 hPa | 0 mm | - | 525 W/m² | - |
| 1777841933 | 26.67° C | 41% | 1013 hPa | 0 mm | - | 553 W/m² | - |
| 1777841630 | 26.67° C | 41% | 1012.9 hPa | 0 mm | - | 548 W/m² | - |
| 1777841327 | 26.67° C | 40% | 1013.1 hPa | 0 mm | - | 567 W/m² | - |
| 1777841024 | 26.67° C | 41% | 1013.3 hPa | 0 mm | - | 572 W/m² | - |
| 1777840721 | 26.67° C | 38% | 1013.2 hPa | 0 mm | - | 586 W/m² | - |
* Rain latest hour (hover to see other rain measurements)
** Current wind speed in m/s (hover to see current wind gust speed)